STARLINK-32425 (61216 NORAD) Tracking and Keplerian Element Data

This shows tracking and keplerian element data for the satellite.

Feedback or suggestion? Click here.




ElementValue
Catalog61216
NameSTARLINK-32425
Epoch Orbit477
Epoch Day286.91668981
Epoch Year2024
RAAN186.5962
Inclination53.1594
Eccentricity0.0001098
Argument of Perigee88.9039
Mean Anonmoly41.198
Mean Motion15.46056694
Decay Rate-0.01539491
L11 61216U 24171S 24286.91668981 -.01539491 00000+0 -34349-1 0 9998
L22 61216 53.1594 186.5962 0001098 88.9039 41.1980 15.46056694 4774



Live tracking and technical data element details for STARLINK-32425 (NORAD 61216). STARLINK-32425 can be tracked NOW for your location showing map with azimuth and elevation plus other details from your city location.







IsCatalogInMostPopularTable: catalog: 61216, numindb: 21
Update: records affected: 1



GetName: 61216 STARLINK-32425

Hit Count: updated at: Wed, 04 Dec 2024 10:00:17 GMT